| time (UTC) | temp F | wind direction | speed MPH | gust MPH | rain 1hr in | rain 24hr in | rain mn in | humidity % | barometer mb |
| 20260508003847 | 50 | 142 | 0.0 | 0.0 | 0.00 | 0.00 | 0.00 | 49 | 1009.7 |
| 20260508003344 | 51 | 142 | 0.0 | 0.0 | 0.00 | 0.00 | 0.00 | 48 | 1009.7 |
| 20260508002841 | 51 | 142 | 0.0 | 0.0 | 0.00 | 0.00 | 0.00 | 47 | 1009.7 |
| 20260508002338 | 52 | 142 | 0.0 | 0.0 | 0.00 | 0.00 | 0.00 | 46 | 1009.3 |
| 20260508001834 | 52 | 142 | 0.0 | 0.0 | 0.00 | 0.00 | 0.00 | 45 | 1009.3 |
| 20260508001330 | 52 | 142 | 0.0 | 0.0 | 0.00 | 0.00 | 0.00 | 44 | 1009.3 |
| 20260508000827 | 53 | 142 | 0.0 | 0.0 | 0.00 | 0.00 | 0.00 | 44 | 1009.3 |
| 20260508000323 | 53 | 143 | 2.0 | 2.0 | 0.00 | 0.00 | 0.00 | 43 | 1009.0 |
| 20260507235820 | 53 | 142 | 0.0 | 0.0 | 0.00 | 0.00 | 0.00 | 43 | 1009.0 |
| 20260507235317 | 53 | 53 | 1.0 | 2.0 | 0.00 | 0.00 | 0.00 | 43 | 1009.0 |
| 20260507234814 | 54 | 85 | 0.0 | 0.0 | 0.00 | 0.00 | 0.00 | 42 | 1009.0 |
| 20260507234311 | 54 | 110 | 0.0 | 0.0 | 0.00 | 0.00 | 0.00 | 42 | 1009.0 |
| 20260507233807 | 54 | 222 | 0.0 | 0.0 | 0.00 | 0.00 | 0.00 | 41 | 1009.0 |
| 20260507233305 | 54 | 4 | 5.0 | 7.0 | 0.00 | 0.00 | 0.00 | 40 | 1009.0 |
| 20260507232803 | 55 | 203 | 3.0 | 3.0 | 0.00 | 0.00 | 0.00 | 40 | 1009.0 |
| 20260507232259 | 55 | 148 | 2.0 | 2.0 | 0.00 | 0.00 | 0.00 | 41 | 1009.0 |
| 20260507231756 | 56 | 141 | 1.0 | 3.0 | 0.00 | 0.00 | 0.00 | 40 | 1008.6 |
| 20260507231253 | 56 | 113 | 0.0 | 0.0 | 0.00 | 0.00 | 0.00 | 41 | 1008.6 |
| 20260507230749 | 56 | 147 | 0.0 | 2.0 | 0.00 | 0.00 | 0.00 | 40 | 1009.0 |
| 20260507230247 | 56 | 353 | 0.0 | 2.0 | 0.00 | 0.00 | 0.00 | 38 | 1009.0 |
| 20260507225746 | 56 | 234 | 7.0 | 10.0 | 0.00 | 0.00 | 0.00 | 36 | 1008.6 |
| 20260507225243 | 56 | 154 | 3.0 | 3.0 | 0.00 | 0.00 | 0.00 | 36 | 1008.6 |
| 20260507224738 | 57 | 190 | 4.0 | 5.0 | 0.00 | 0.00 | 0.00 | 36 | 1009.0 |
| 20260507224235 | 57 | 144 | 1.0 | 2.0 | 0.00 | 0.00 | 0.00 | 34 | 1009.0 |
| 20260507223732 | 58 | 85 | 1.0 | 2.0 | 0.00 | 0.00 | 0.00 | 36 | 1008.6 |
| 20260507223228 | 58 | 164 | 3.0 | 3.0 | 0.00 | 0.00 | 0.00 | 35 | 1009.0 |
| 20260507222725 | 58 | 232 | 6.0 | 9.0 | 0.00 | 0.00 | 0.00 | 34 | 1008.6 |
| 20260507222222 | 58 | 57 | 6.0 | 9.0 | 0.00 | 0.00 | 0.00 | 35 | 1009.0 |
| 20260507221718 | 58 | 227 | 5.0 | 7.0 | 0.00 | 0.00 | 0.00 | 34 | 1008.6 |
| 20260507221215 | 58 | 32 | 4.0 | 5.0 | 0.00 | 0.00 | 0.00 | 34 | 1009.0 |
| 20260507220711 | 58 | 86 | 3.0 | 3.0 | 0.00 | 0.00 | 0.00 | 36 | 1009.0 |
| 20260507220210 | 58 | 26 | 3.0 | 3.0 | 0.00 | 0.00 | 0.00 | 35 | 1009.0 |
| 20260507215705 | 58 | 141 | 1.0 | 2.0 | 0.00 | 0.00 | 0.00 | 35 | 1009.0 |
| 20260507215203 | 58 | 94 | 4.0 | 7.0 | 0.00 | 0.00 | 0.00 | 35 | 1009.0 |
| 20260507214700 | 58 | 200 | 6.0 | 12.0 | 0.00 | 0.00 | 0.00 | 35 | 1009.0 |
| 20260507214156 | 59 | 14 | 7.0 | 14.0 | 0.00 | 0.00 | 0.00 | 34 | 1009.0 |
| 20260507213652 | 59 | 188 | 2.0 | 3.0 | 0.00 | 0.00 | 0.00 | 35 | 1009.0 |
| 20260507213150 | 59 | 64 | 0.0 | 2.0 | 0.00 | 0.00 | 0.00 | 35 | 1009.0 |
| 20260507212646 | 58 | 225 | 7.0 | 9.0 | 0.00 | 0.00 | 0.00 | 35 | 1009.0 |
| 20260507212143 | 58 | 121 | 1.0 | 5.0 | 0.00 | 0.00 | 0.00 | 38 | 1008.6 |
| 20260507211640 | 58 | 117 | 2.0 | 3.0 | 0.00 | 0.00 | 0.00 | 38 | 1009.0 |
| 20260507211135 | 58 | 41 | 6.0 | 9.0 | 0.00 | 0.00 | 0.00 | 36 | 1009.0 |
| 20260507210633 | 59 | 108 | 3.0 | 3.0 | 0.00 | 0.00 | 0.00 | 38 | 1009.0 |
| 20260507210129 | 59 | 112 | 0.0 | 0.0 | 0.00 | 0.00 | 0.00 | 38 | 1008.6 |
| 20260507205626 | 59 | 72 | 2.0 | 3.0 | 0.00 | 0.00 | 0.00 | 37 | 1008.6 |
| 20260507205123 | 60 | 45 | 12.0 | 19.0 | 0.00 | 0.00 | 0.00 | 35 | 1008.6 |
| 20260507204619 | 59 | 258 | 3.0 | 5.0 | 0.00 | 0.00 | 0.00 | 37 | 1008.6 |
| 20260507204117 | 58 | 232 | 7.0 | 9.0 | 0.00 | 0.00 | 0.00 | 37 | 1009.0 |
| 20260507203614 | 58 | 45 | 5.0 | 7.0 | 0.00 | 0.00 | 0.00 | 38 | 1009.0 |
| 20260507203112 | 57 | 147 | 2.0 | 2.0 | 0.00 | 0.00 | 0.00 | 39 | 1009.0 |
| 20260507202607 | 58 | 65 | 2.0 | 2.0 | 0.00 | 0.00 | 0.00 | 40 | 1008.6 |
| 20260507202104 | 59 | 241 | 7.0 | 12.0 | 0.00 | 0.00 | 0.00 | 38 | 1009.0 |
| 20260507201559 | 58 | 293 | 6.0 | 10.0 | 0.00 | 0.00 | 0.00 | 40 | 1008.6 |
| 20260507201056 | 58 | 29 | 5.0 | 9.0 | 0.00 | 0.00 | 0.00 | 38 | 1009.0 |
| 20260507200551 | 59 | 137 | 2.0 | 3.0 | 0.00 | 0.00 | 0.00 | 38 | 1009.0 |
| 20260507200048 | 58 | 168 | 1.0 | 2.0 | 0.00 | 0.00 | 0.00 | 38 | 1009.0 |
| 20260507195545 | 57 | 238 | 7.0 | 10.0 | 0.00 | 0.00 | 0.00 | 39 | 1009.0 |
| 20260507195042 | 57 | 218 | 10.0 | 14.0 | 0.00 | 0.00 | 0.00 | 39 | 1009.3 |
| 20260507194538 | 58 | 237 | 6.0 | 9.0 | 0.00 | 0.00 | 0.00 | 39 | 1009.0 |
| 20260507194035 | 57 | 108 | 1.0 | 2.0 | 0.00 | 0.00 | 0.00 | 39 | 1009.3 |
| 20260507193532 | 57 | 207 | 7.0 | 10.0 | 0.00 | 0.00 | 0.00 | 41 | 1009.3 |
| 20260507193029 | 57 | 289 | 3.0 | 3.0 | 0.00 | 0.00 | 0.00 | 41 | 1009.3 |
| 20260507192525 | 58 | 206 | 7.0 | 9.0 | 0.00 | 0.00 | 0.00 | 42 | 1009.3 |
| 20260507192022 | 59 | 158 | 4.0 | 5.0 | 0.00 | 0.00 | 0.00 | 43 | 1009.0 |
| 20260507191517 | 59 | 115 | 8.0 | 12.0 | 0.00 | 0.00 | 0.00 | 42 | 1009.3 |
| 20260507191014 | 58 | 338 | 4.0 | 5.0 | 0.00 | 0.00 | 0.00 | 42 | 1009.3 |
| 20260507190512 | 57 | 185 | 4.0 | 7.0 | 0.00 | 0.00 | 0.00 | 44 | 1009.7 |
| 20260507190011 | 57 | 59 | 1.0 | 2.0 | 0.00 | 0.00 | 0.00 | 44 | 1010.0 |
| 20260507185508 | 57 | 147 | 7.0 | 10.0 | 0.00 | 0.00 | 0.00 | 42 | 1009.7 |
| 20260507185004 | 57 | 20 | 7.0 | 12.0 | 0.00 | 0.00 | 0.00 | 46 | 1010.0 |
| 20260507184503 | 59 | 264 | 4.0 | 7.0 | 0.00 | 0.00 | 0.00 | 44 | 1009.7 |
| 20260507184001 | 58 | 192 | 3.0 | 3.0 | 0.00 | 0.00 | 0.00 | 43 | 1010.0 |
| 20260507183456 | 58 | 277 | 2.0 | 3.0 | 0.00 | 0.00 | 0.00 | 45 | 1010.0 |
| 20260507182954 | 59 | 217 | 8.0 | 12.0 | 0.00 | 0.00 | 0.00 | 43 | 1010.0 |
| 20260507182449 | 59 | 117 | 2.0 | 3.0 | 0.00 | 0.00 | 0.00 | 42 | 1010.0 |
| 20260507181945 | 58 | 197 | 2.0 | 3.0 | 0.00 | 0.00 | 0.00 | 43 | 1010.0 |
| 20260507181442 | 57 | 118 | 4.0 | 7.0 | 0.00 | 0.00 | 0.00 | 44 | 1010.0 |
| 20260507180939 | 56 | 229 | 7.0 | 14.0 | 0.00 | 0.00 | 0.00 | 46 | 1010.0 |
| 20260507180436 | 56 | 200 | 7.0 | 10.0 | 0.00 | 0.00 | 0.00 | 45 | 1010.0 |
| 20260507175932 | 56 | 157 | 4.0 | 5.0 | 0.00 | 0.00 | 0.00 | 44 | 1010.0 |
| 20260507175428 | 56 | 199 | 6.0 | 9.0 | 0.00 | 0.00 | 0.00 | 45 | 1010.3 |
| 20260507174926 | 55 | 94 | 1.0 | 2.0 | 0.00 | 0.00 | 0.00 | 47 | 1010.3 |
| 20260507174423 | 55 | 167 | 3.0 | 5.0 | 0.00 | 0.00 | 0.00 | 44 | 1010.3 |
| 20260507173921 | 56 | 210 | 6.0 | 9.0 | 0.00 | 0.00 | 0.00 | 44 | 1010.0 |
| 20260507173418 | 56 | 57 | 3.0 | 5.0 | 0.00 | 0.00 | 0.00 | 45 | 1010.3 |
| 20260507172914 | 56 | 162 | 1.0 | 2.0 | 0.00 | 0.00 | 0.00 | 47 | 1010.3 |
| 20260507172411 | 56 | 341 | 3.0 | 3.0 | 0.00 | 0.00 | 0.00 | 45 | 1010.3 |
| 20260507171907 | 57 | 214 | 5.0 | 9.0 | 0.00 | 0.00 | 0.00 | 44 | 1010.0 |
| 20260507171403 | 57 | 356 | 2.0 | 3.0 | 0.00 | 0.00 | 0.00 | 43 | 1010.3 |
| 20260507170901 | 56 | 27 | 3.0 | 7.0 | 0.00 | 0.00 | 0.00 | 49 | 1010.3 |
| 20260507170357 | 54 | 14 | 2.0 | 3.0 | 0.00 | 0.00 | 0.00 | 46 | 1010.3 |
| 20260507165853 | 55 | 357 | 9.0 | 14.0 | 0.00 | 0.00 | 0.00 | 45 | 1010.7 |
| 20260507165349 | 56 | 322 | 3.0 | 5.0 | 0.00 | 0.00 | 0.00 | 44 | 1010.3 |
| 20260507164845 | 56 | 33 | 3.0 | 5.0 | 0.00 | 0.00 | 0.00 | 46 | 1010.7 |
| 20260507164343 | 56 | 65 | 3.0 | 5.0 | 0.00 | 0.00 | 0.00 | 43 | 1010.3 |
| 20260507163840 | 56 | 88 | 4.0 | 7.0 | 0.00 | 0.00 | 0.00 | 44 | 1010.7 |
| 20260507163337 | 57 | 290 | 11.0 | 14.0 | 0.00 | 0.00 | 0.00 | 43 | 1010.7 |
| 20260507162833 | 57 | 19 | 1.0 | 3.0 | 0.00 | 0.00 | 0.00 | 45 | 1010.7 |
| 20260507162329 | 57 | 13 | 2.0 | 3.0 | 0.00 | 0.00 | 0.00 | 44 | 1010.7 |
| 20260507161826 | 56 | 29 | 2.0 | 2.0 | 0.00 | 0.00 | 0.00 | 49 | 1010.7 |
| 20260507161323 | 55 | 188 | 1.0 | 3.0 | 0.00 | 0.00 | 0.00 | 45 | 1011.0 |
| 20260507160819 | 56 | 206 | 5.0 | 7.0 | 0.00 | 0.00 | 0.00 | 45 | 1010.7 |
| 20260507160315 | 56 | 110 | 2.0 | 3.0 | 0.00 | 0.00 | 0.00 | 49 | 1011.0 |
| 20260507155811 | 56 | 229 | 1.0 | 2.0 | 0.00 | 0.00 | 0.00 | 47 | 1011.4 |
| 20260507155308 | 55 | 318 | 2.0 | 2.0 | 0.00 | 0.00 | 0.00 | 47 | 1011.0 |
| 20260507154804 | 55 | 40 | 1.0 | 3.0 | 0.00 | 0.00 | 0.00 | 50 | 1011.0 |
| 20260507154302 | 55 | 224 | 5.0 | 9.0 | 0.00 | 0.00 | 0.00 | 48 | 1011.4 |
| 20260507153758 | 55 | 24 | 3.0 | 5.0 | 0.00 | 0.00 | 0.00 | 48 | 1011.4 |
| 20260507153254 | 55 | 51 | 2.0 | 3.0 | 0.00 | 0.00 | 0.00 | 48 | 1011.4 |
| 20260507152751 | 55 | 258 | 5.0 | 7.0 | 0.00 | 0.00 | 0.00 | 47 | 1011.7 |
| 20260507152248 | 54 | 74 | 0.0 | 0.0 | 0.00 | 0.00 | 0.00 | 51 | 1011.7 |
| 20260507151743 | 53 | 164 | 3.0 | 3.0 | 0.00 | 0.00 | 0.00 | 48 | 1011.4 |
| 20260507151240 | 54 | 284 | 8.0 | 12.0 | 0.00 | 0.00 | 0.00 | 46 | 1011.7 |
| 20260507150737 | 54 | 181 | 3.0 | 3.0 | 0.00 | 0.00 | 0.00 | 50 | 1011.4 |
| 20260507150234 | 54 | 254 | 4.0 | 7.0 | 0.00 | 0.00 | 0.00 | 49 | 1011.7 |
| 20260507145730 | 53 | 28 | 3.0 | 5.0 | 0.00 | 0.00 | 0.00 | 50 | 1011.7 |
| 20260507145226 | 53 | 21 | 3.0 | 7.0 | 0.00 | 0.00 | 0.00 | 50 | 1011.7 |
| 20260507144724 | 52 | 260 | 4.0 | 5.0 | 0.00 | 0.00 | 0.00 | 50 | 1012.0 |
| 20260507144221 | 53 | 265 | 2.0 | 3.0 | 0.00 | 0.00 | 0.00 | 49 | 1011.7 |
| 20260507143718 | 52 | 349 | 1.0 | 2.0 | 0.00 | 0.00 | 0.00 | 49 | 1011.7 |
| 20260507143215 | 52 | 238 | 5.0 | 7.0 | 0.00 | 0.00 | 0.00 | 48 | 1011.7 |
| 20260507142711 | 52 | 190 | 5.0 | 7.0 | 0.00 | 0.00 | 0.00 | 48 | 1011.7 |
| 20260507142208 | 52 | 27 | 5.0 | 9.0 | 0.00 | 0.00 | 0.00 | 50 | 1011.7 |
| 20260507141703 | 51 | 153 | 3.0 | 5.0 | 0.00 | 0.00 | 0.00 | 50 | 1012.0 |
| 20260507141201 | 51 | 330 | 4.0 | 5.0 | 0.00 | 0.00 | 0.00 | 52 | 1012.0 |
| 20260507140657 | 51 | 194 | 3.0 | 5.0 | 0.00 | 0.00 | 0.00 | 51 | 1012.0 |
| 20260507140155 | 51 | 260 | 9.0 | 14.0 | 0.00 | 0.00 | 0.00 | 50 | 1012.0 |
| 20260507135652 | 51 | 200 | 1.0 | 2.0 | 0.00 | 0.00 | 0.00 | 51 | 1012.0 |
| 20260507135149 | 50 | 95 | 3.0 | 3.0 | 0.00 | 0.00 | 0.00 | 52 | 1011.7 |
| 20260507134645 | 50 | 196 | 3.0 | 3.0 | 0.00 | 0.00 | 0.00 | 52 | 1012.0 |
| 20260507134141 | 50 | 169 | 5.0 | 7.0 | 0.00 | 0.00 | 0.00 | 53 | 1012.0 |
| 20260507133637 | 50 | 195 | 3.0 | 3.0 | 0.00 | 0.00 | 0.00 | 54 | 1012.0 |
| 20260507133135 | 49 | 162 | 2.0 | 2.0 | 0.00 | 0.00 | 0.00 | 56 | 1012.0 |
| 20260507132632 | 48 | 197 | 5.0 | 5.0 | 0.00 | 0.00 | 0.00 | 56 | 1012.0 |
| 20260507132128 | 48 | 3 | 4.0 | 7.0 | 0.00 | 0.00 | 0.00 | 57 | 1012.0 |
| 20260507131625 | 48 | 111 | 3.0 | 3.0 | 0.00 | 0.00 | 0.00 | 58 | 1012.0 |
| 20260507131123 | 48 | 107 | 0.0 | 2.0 | 0.00 | 0.00 | 0.00 | 55 | 1012.4 |
| 20260507130619 | 47 | 95 | 3.0 | 5.0 | 0.00 | 0.00 | 0.00 | 58 | 1012.0 |
| 20260507130117 | 47 | 228 | 5.0 | 9.0 | 0.00 | 0.00 | 0.00 | 57 | 1012.0 |
| 20260507125616 | 47 | 159 | 3.0 | 3.0 | 0.00 | 0.00 | 0.00 | 57 | 1012.0 |
| 20260507125113 | 47 | 114 | 0.0 | 2.0 | 0.00 | 0.00 | 0.00 | 60 | 1012.0 |
| 20260507124609 | 46 | 203 | 2.0 | 3.0 | 0.00 | 0.00 | 0.00 | 61 | 1012.0 |
| 20260507124107 | 46 | 171 | 7.0 | 10.0 | 0.00 | 0.00 | 0.00 | 61 | 1012.0 |
| 20260507123605 | 46 | 129 | 1.0 | 2.0 | 0.00 | 0.00 | 0.00 | 61 | 1012.0 |
| 20260507123101 | 46 | 169 | 3.0 | 5.0 | 0.00 | 0.00 | 0.00 | 62 | 1012.0 |
| 20260507122556 | 46 | 208 | 4.0 | 7.0 | 0.00 | 0.00 | 0.00 | 66 | 1012.0 |
| 20260507122052 | 45 | 137 | 2.0 | 3.0 | 0.00 | 0.00 | 0.00 | 66 | 1012.0 |
| 20260507121548 | 45 | 171 | 2.0 | 2.0 | 0.00 | 0.00 | 0.00 | 68 | 1012.4 |
| 20260507121045 | 45 | 33 | 4.0 | 7.0 | 0.00 | 0.00 | 0.00 | 67 | 1012.0 |
| 20260507120541 | 44 | 301 | 3.0 | 3.0 | 0.00 | 0.00 | 0.00 | 70 | 1012.0 |
| 20260507120038 | 44 | 188 | 6.0 | 10.0 | 0.00 | 0.00 | 0.00 | 71 | 1012.0 |
| 20260507115534 | 44 | 53 | 3.0 | 3.0 | 0.00 | 0.00 | 0.00 | 71 | 1011.7 |
| 20260507115030 | 44 | 150 | 3.0 | 5.0 | 0.00 | 0.00 | 0.00 | 74 | 1011.7 |
| 20260507114526 | 44 | 97 | 0.0 | 0.0 | 0.00 | 0.00 | 0.00 | 74 | 1011.7 |
| 20260507114024 | 43 | 94 | 0.0 | 2.0 | 0.00 | 0.00 | 0.00 | 74 | 1011.7 |
| 20260507113520 | 43 | 149 | 2.0 | 2.0 | 0.00 | 0.00 | 0.00 | 75 | 1011.7 |
| 20260507113018 | 43 | 190 | 2.0 | 3.0 | 0.00 | 0.00 | 0.00 | 75 | 1011.4 |
| 20260507112516 | 43 | 127 | 0.0 | 0.0 | 0.00 | 0.00 | 0.00 | 76 | 1011.7 |
| 20260507112012 | 42 | 132 | 0.0 | 2.0 | 0.00 | 0.00 | 0.00 | 76 | 1011.7 |
| 20260507111510 | 42 | 146 | 3.0 | 5.0 | 0.00 | 0.00 | 0.00 | 80 | 1011.7 |
| 20260507111005 | 42 | 10 | 1.0 | 2.0 | 0.00 | 0.00 | 0.00 | 80 | 1011.7 |
| 20260507110502 | 42 | 240 | 1.0 | 3.0 | 0.00 | 0.00 | 0.00 | 81 | 1011.4 |
| 20260507105958 | 42 | 53 | 1.0 | 2.0 | 0.00 | 0.00 | 0.00 | 82 | 1011.7 |
| 20260507105455 | 42 | 127 | 0.0 | 2.0 | 0.00 | 0.00 | 0.00 | 83 | 1011.4 |
| 20260507104952 | 42 | 42 | 1.0 | 2.0 | 0.00 | 0.00 | 0.00 | 84 | 1011.7 |
| 20260507104449 | 42 | 104 | 0.0 | 0.0 | 0.00 | 0.00 | 0.00 | 85 | 1011.7 |
| 20260507103944 | 42 | 115 | 0.0 | 0.0 | 0.00 | 0.00 | 0.00 | 86 | 1011.4 |
| 20260507103442 | 42 | 107 | 0.0 | 0.0 | 0.00 | 0.00 | 0.00 | 87 | 1011.4 |
| 20260507102937 | 42 | 83 | 3.0 | 3.0 | 0.00 | 0.00 | 0.00 | 87 | 1011.4 |
| 20260507102434 | 42 | 104 | 1.0 | 2.0 | 0.00 | 0.00 | 0.00 | 88 | 1011.4 |
| 20260507101931 | 43 | 114 | 0.0 | 0.0 | 0.00 | 0.00 | 0.00 | 88 | 1011.0 |
| 20260507101426 | 42 | 149 | 3.0 | 3.0 | 0.00 | 0.00 | 0.00 | 88 | 1011.0 |
| 20260507100923 | 43 | 113 | 1.0 | 2.0 | 0.00 | 0.00 | 0.00 | 88 | 1010.7 |
| 20260507100420 | 43 | 121 | 1.0 | 2.0 | 0.00 | 0.00 | 0.00 | 88 | 1010.7 |
| 20260507095919 | 43 | 119 | 1.0 | 2.0 | 0.00 | 0.00 | 0.00 | 88 | 1010.7 |
| 20260507095415 | 43 | 150 | 3.0 | 3.0 | 0.00 | 0.00 | 0.00 | 88 | 1010.7 |
| 20260507094913 | 43 | 99 | 0.0 | 0.0 | 0.00 | 0.00 | 0.00 | 87 | 1011.0 |
| 20260507094408 | 43 | 99 | 0.0 | 0.0 | 0.00 | 0.00 | 0.00 | 87 | 1010.7 |
| 20260507093906 | 43 | 126 | 0.0 | 0.0 | 0.00 | 0.00 | 0.00 | 87 | 1011.0 |
| 20260507093404 | 43 | 198 | 2.0 | 3.0 | 0.00 | 0.00 | 0.00 | 87 | 1010.7 |
| 20260507092902 | 43 | 95 | 0.0 | 0.0 | 0.00 | 0.00 | 0.00 | 87 | 1010.7 |
| 20260507092357 | 43 | 223 | 6.0 | 9.0 | 0.00 | 0.00 | 0.00 | 88 | 1010.7 |
| 20260507091854 | 43 | 122 | 0.0 | 0.0 | 0.00 | 0.00 | 0.00 | 90 | 1010.7 |
| 20260507091351 | 44 | 165 | 4.0 | 7.0 | 0.00 | 0.00 | 0.00 | 91 | 1010.7 |
| 20260507090846 | 44 | 124 | 0.0 | 0.0 | 0.00 | 0.00 | 0.00 | 92 | 1010.7 |
| 20260507090343 | 44 | 260 | 3.0 | 5.0 | 0.00 | 0.00 | 0.00 | 93 | 1010.7 |
| 20260507085840 | 44 | 108 | 0.0 | 0.0 | 0.00 | 0.00 | 0.00 | 94 | 1010.7 |
| 20260507085337 | 44 | 132 | 0.0 | 2.0 | 0.00 | 0.00 | 0.00 | 94 | 1010.7 |
| 20260507084834 | 44 | 172 | 2.0 | 3.0 | 0.00 | 0.00 | 0.00 | 94 | 1010.3 |
| 20260507084330 | 44 | 90 | 0.0 | 0.0 | 0.00 | 0.00 | 0.00 | 95 | 1010.3 |
| 20260507083828 | 44 | 62 | 0.0 | 2.0 | 0.00 | 0.00 | 0.00 | 95 | 1010.7 |
| 20260507083324 | 44 | 129 | 1.0 | 2.0 | 0.00 | 0.00 | 0.00 | 95 | 1010.7 |
| 20260507082820 | 44 | 106 | 4.0 | 5.0 | 0.00 | 0.00 | 0.00 | 96 | 1010.3 |
| 20260507082316 | 44 | 105 | 0.0 | 0.0 | 0.00 | 0.00 | 0.00 | 96 | 1010.7 |
| 20260507081814 | 44 | 106 | 0.0 | 0.0 | 0.00 | 0.00 | 0.00 | 96 | 1010.7 |
| 20260507081309 | 44 | 99 | 0.0 | 0.0 | 0.00 | 0.00 | 0.00 | 96 | 1010.7 |
| 20260507080806 | 45 | 188 | 3.0 | 5.0 | 0.00 | 0.00 | 0.00 | 97 | 1010.7 |
| 20260507080303 | 45 | 100 | 1.0 | 2.0 | 0.00 | 0.00 | 0.00 | 97 | 1010.7 |
| 20260507075758 | 45 | 65 | 1.0 | 2.0 | 0.00 | 0.00 | 0.00 | 97 | 1010.7 |
| 20260507075254 | 45 | 120 | 0.0 | 0.0 | 0.00 | 0.00 | 0.00 | 97 | 1010.7 |
| 20260507074750 | 45 | 49 | 0.0 | 0.0 | 0.00 | 0.00 | 0.00 | 97 | 1010.7 |
| 20260507074249 | 45 | 68 | 1.0 | 2.0 | 0.00 | 0.00 | 0.00 | 97 | 1010.7 |
| 20260507073745 | 45 | 144 | 1.0 | 2.0 | 0.00 | 0.00 | 0.00 | 98 | 1010.7 |
| 20260507073242 | 45 | 194 | 3.0 | 5.0 | 0.00 | 0.00 | 0.00 | 98 | 1010.3 |
| 20260507072740 | 45 | 110 | 0.0 | 0.0 | 0.00 | 0.00 | 0.00 | 98 | 1010.7 |
| 20260507072237 | 45 | 96 | 0.0 | 0.0 | 0.00 | 0.00 | 0.00 | 98 | 1010.7 |
| 20260507071734 | 45 | 203 | 3.0 | 3.0 | 0.00 | 0.00 | 0.00 | 98 | 1010.3 |
| 20260507071230 | 45 | 199 | 5.0 | 7.0 | 0.00 | 0.00 | 0.00 | 98 | 1010.3 |
| 20260507070727 | 45 | 131 | 0.0 | 0.0 | 0.00 | 0.00 | 0.00 | 98 | 1010.0 |
| 20260507070224 | 46 | 115 | 0.0 | 0.0 | 0.00 | 0.00 | 0.00 | 98 | 1010.3 |
| 20260507065721 | 46 | 103 | 0.0 | 0.0 | 0.00 | 0.00 | 0.00 | 98 | 1010.3 |
| 20260507065218 | 46 | 110 | 0.0 | 0.0 | 0.00 | 0.00 | 0.00 | 98 | 1010.0 |
| 20260507064715 | 46 | 128 | 0.0 | 0.0 | 0.00 | 0.00 | 0.00 | 98 | 1010.0 |
| 20260507064214 | 46 | 109 | 0.0 | 0.0 | 0.00 | 0.00 | 0.00 | 98 | 1010.0 |
| 20260507063711 | 46 | 98 | 0.0 | 0.0 | 0.00 | 0.00 | 0.00 | 98 | 1010.0 |
| 20260507063207 | 46 | 110 | 0.0 | 0.0 | 0.00 | 0.00 | 0.00 | 98 | 1010.0 |
| 20260507062705 | 46 | 119 | 0.0 | 0.0 | 0.00 | 0.00 | 0.00 | 98 | 1010.0 |
| 20260507062202 | 46 | 119 | 0.0 | 0.0 | 0.00 | 0.00 | 0.00 | 98 | 1009.7 |
| 20260507061700 | 46 | 114 | 0.0 | 0.0 | 0.00 | 0.00 | 0.00 | 98 | 1009.7 |
| 20260507061158 | 46 | 160 | 3.0 | 3.0 | 0.00 | 0.00 | 0.00 | 98 | 1009.7 |
| 20260507060655 | 46 | 92 | 0.0 | 0.0 | 0.00 | 0.00 | 0.00 | 98 | 1010.0 |
| 20260507060152 | 46 | 95 | 0.0 | 0.0 | 0.00 | 0.00 | 0.00 | 98 | 1010.0 |
| 20260507055647 | 46 | 105 | 0.0 | 0.0 | 0.00 | 0.00 | 0.00 | 98 | 1010.0 |
| 20260507055143 | 46 | 108 | 0.0 | 0.0 | 0.00 | 0.00 | 0.00 | 98 | 1010.0 |
| 20260507054639 | 46 | 108 | 0.0 | 0.0 | 0.00 | 0.00 | 0.00 | 98 | 1009.7 |
| 20260507054136 | 46 | 110 | 0.0 | 0.0 | 0.00 | 0.00 | 0.00 | 98 | 1009.3 |
| 20260507053634 | 46 | 102 | 0.0 | 0.0 | 0.00 | 0.00 | 0.00 | 98 | 1009.7 |
| 20260507053132 | 46 | 113 | 0.0 | 0.0 | 0.00 | 0.00 | 0.00 | 98 | 1009.7 |
| 20260507052631 | 46 | 109 | 0.0 | 0.0 | 0.00 | 0.00 | 0.00 | 98 | 1010.0 |
| 20260507052126 | 46 | 104 | 0.0 | 0.0 | 0.00 | 0.00 | 0.00 | 98 | 1009.7 |
| 20260507051624 | 46 | 94 | 0.0 | 0.0 | 0.00 | 0.00 | 0.00 | 98 | 1009.3 |
| 20260507051121 | 46 | 108 | 0.0 | 0.0 | 0.00 | 0.00 | 0.00 | 98 | 1010.3 |
| 20260507050618 | 46 | 110 | 0.0 | 0.0 | 0.00 | 0.00 | 0.00 | 98 | 1009.7 |
| 20260507050114 | 46 | 102 | 0.0 | 0.0 | 0.00 | 0.00 | 0.00 | 98 | 1009.7 |
| 20260507045611 | 46 | 96 | 0.0 | 0.0 | 0.00 | 0.00 | 0.00 | 98 | 1010.0 |
| 20260507045108 | 46 | 121 | 0.0 | 0.0 | 0.00 | 0.00 | 0.00 | 98 | 1010.0 |
| 20260507044604 | 46 | 105 | 0.0 | 0.0 | 0.00 | 0.00 | 0.00 | 98 | 1010.0 |
| 20260507044102 | 46 | 118 | 0.0 | 0.0 | 0.00 | 0.00 | 0.00 | 98 | 1009.7 |
| 20260507043557 | 46 | 102 | 0.0 | 0.0 | 0.00 | 0.00 | 0.00 | 98 | 1010.0 |
| 20260507043055 | 46 | 104 | 0.0 | 0.0 | 0.00 | 0.00 | 0.00 | 98 | 1010.0 |
| 20260507042551 | 46 | 63 | 0.0 | 0.0 | 0.00 | 0.00 | 0.00 | 98 | 1010.3 |
| 20260507042046 | 46 | 116 | 0.0 | 0.0 | 0.00 | 0.00 | 0.00 | 98 | 1010.7 |
| 20260507041544 | 46 | 103 | 0.0 | 0.0 | 0.00 | 0.00 | 0.00 | 98 | 1010.3 |
| 20260507041040 | 46 | 115 | 0.0 | 0.0 | 0.00 | 0.00 | 0.00 | 98 | 1010.0 |
| 20260507040537 | 47 | 106 | 0.0 | 0.0 | 0.00 | 0.00 | 0.00 | 98 | 1010.0 |
| 20260507040033 | 47 | 106 | 0.0 | 0.0 | 0.00 | 0.50 | 0.50 | 98 | 1010.0 |
| 20260507035529 | 46 | 91 | 0.0 | 0.0 | 0.00 | 0.50 | 0.50 | 98 | 1010.0 |
| 20260507035026 | 47 | 109 | 0.0 | 0.0 | 0.00 | 0.50 | 0.50 | 98 | 1010.0 |
| 20260507034523 | 47 | 111 | 0.0 | 0.0 | 0.00 | 0.50 | 0.50 | 98 | 1010.3 |
| 20260507034021 | 47 | 109 | 0.0 | 0.0 | 0.00 | 0.50 | 0.50 | 98 | 1010.0 |
| 20260507033518 | 47 | 97 | 0.0 | 0.0 | 0.00 | 0.50 | 0.50 | 98 | 1010.0 |
| 20260507033015 | 47 | 96 | 0.0 | 0.0 | 0.00 | 0.50 | 0.50 | 98 | 1010.0 |
| 20260507032512 | 47 | 101 | 0.0 | 0.0 | 0.00 | 0.50 | 0.50 | 98 | 1010.3 |
| 20260507032008 | 47 | 74 | 0.0 | 0.0 | 0.00 | 0.50 | 0.50 | 98 | 1010.3 |
| 20260507031504 | 47 | 103 | 0.0 | 0.0 | 0.00 | 0.50 | 0.50 | 98 | 1010.3 |
| 20260507031002 | 47 | 104 | 0.0 | 0.0 | 0.00 | 0.50 | 0.50 | 98 | 1010.0 |
| 20260507030459 | 46 | 87 | 0.0 | 0.0 | 0.00 | 0.50 | 0.50 | 98 | 1010.7 |
| 20260507025956 | 47 | 101 | 0.0 | 0.0 | 0.00 | 0.50 | 0.50 | 98 | 1010.3 |
| 20260507025453 | 47 | 95 | 0.0 | 0.0 | 0.00 | 0.50 | 0.50 | 98 | 1010.7 |
| 20260507024951 | 47 | 105 | 0.0 | 0.0 | 0.00 | 0.50 | 0.50 | 98 | 1010.3 |
| 20260507024448 | 47 | 78 | 2.0 | 2.0 | 0.00 | 0.50 | 0.50 | 98 | 1010.7 |
| 20260507023944 | 46 | 103 | 0.0 | 0.0 | 0.00 | 0.50 | 0.50 | 98 | 1010.3 |
| 20260507023440 | 47 | 105 | 0.0 | 0.0 | 0.00 | 0.50 | 0.50 | 98 | 1010.7 |
| 20260507022938 | 46 | 101 | 0.0 | 0.0 | 0.00 | 0.50 | 0.50 | 98 | 1010.3 |
| 20260507022435 | 46 | 99 | 0.0 | 2.0 | 0.00 | 0.50 | 0.50 | 98 | 1010.7 |
| 20260507021930 | 46 | 102 | 0.0 | 0.0 | 0.00 | 0.50 | 0.50 | 98 | 1010.3 |
| 20260507021425 | 46 | 93 | 0.0 | 0.0 | 0.00 | 0.50 | 0.50 | 98 | 1010.7 |
| 20260507020924 | 46 | 102 | 0.0 | 0.0 | 0.00 | 0.50 | 0.50 | 98 | 1010.3 |
| 20260507020420 | 46 | 94 | 0.0 | 0.0 | 0.00 | 0.50 | 0.50 | 98 | 1010.3 |
| 20260507015917 | 47 | 110 | 0.0 | 0.0 | 0.00 | 0.50 | 0.50 | 98 | 1010.7 |
| 20260507015415 | 47 | 99 | 0.0 | 0.0 | 0.00 | 0.50 | 0.50 | 98 | 1010.3 |
| 20260507014912 | 47 | 104 | 0.0 | 0.0 | 0.00 | 0.50 | 0.50 | 98 | 1010.7 |
| 20260507014408 | 47 | 103 | 0.0 | 0.0 | 0.00 | 0.50 | 0.50 | 98 | 1010.3 |
| 20260507013905 | 47 | 105 | 1.0 | 2.0 | 0.00 | 0.50 | 0.50 | 98 | 1010.3 |
| 20260507013402 | 47 | 56 | 0.0 | 2.0 | 0.00 | 0.50 | 0.50 | 98 | 1010.3 |
| 20260507012900 | 47 | 83 | 0.0 | 0.0 | 0.00 | 0.50 | 0.50 | 98 | 1010.0 |
| 20260507012356 | 47 | 103 | 0.0 | 0.0 | 0.00 | 0.50 | 0.50 | 98 | 1010.3 |
| 20260507011853 | 47 | 103 | 0.0 | 0.0 | 0.00 | 0.50 | 0.50 | 98 | 1010.3 |
| 20260507011350 | 47 | 94 | 0.0 | 0.0 | 0.00 | 0.50 | 0.50 | 98 | 1010.3 |
| 20260507010849 | 48 | 79 | 0.0 | 2.0 | 0.00 | 0.50 | 0.50 | 98 | 1010.0 |
| 20260507010345 | 48 | 102 | 0.0 | 0.0 | 0.00 | 0.50 | 0.50 | 98 | 1010.0 |
| 20260507005843 | 48 | 99 | 0.0 | 0.0 | 0.02 | 0.49 | 0.49 | 98 | 1010.3 |
| 20260507005339 | 49 | 99 | 0.0 | 0.0 | 0.02 | 0.49 | 0.49 | 98 | 1010.0 |
| 20260507004836 | 49 | 103 | 0.0 | 0.0 | 0.02 | 0.49 | 0.49 | 98 | 1010.0 |
| 20260507004333 | 49 | 105 | 0.0 | 0.0 | 0.02 | 0.49 | 0.49 | 98 | 1009.7 |